Regional Weather Roundup
Issued by NWS Charleston, WV

Home | Current Version | Previous Version | Graphics & Text | Print | Product List | Glossary On
Versions: 1 2 3 4 5 6 7 8 9 10 11 12 13 14 15 16 17 18 19 20 21 22 23 24 25 26 27
000
ASUS41 KRLX 151410
RWRRLX
West Virginia Regional Weather Roundup
National Weather Service Charleston WV
1000 AM EDT TUE APR 15 2014

Note: "fair" indicates few or no clouds below 12,000 feet with no
significant weather and/or obstructions to visibility.

WVZ003-151500-
Northern Panhandle of West Virginia

CITY           SKY/WX    TMP DP  RH WIND       PRES   REMARKS
WHEELING       LGT SNOW  33  31  92 NW14      29.81R FOG
$$

WVZ009-151500-
Northwest West Virginia

CITY           SKY/WX    TMP DP  RH WIND       PRES   REMARKS
PARKERSBURG    LGT SNOW  35  32  88 NW7       29.90R FOG
$$

WVZ006-151500-
Western West Virginia

CITY           SKY/WX    TMP DP  RH WIND       PRES   REMARKS
HUNTINGTON     LGT SNOW  32  32 100 NW8       29.93S VSB 3/4
$$

WVZ015-151500-
West Central West Virginia

CITY           SKY/WX    TMP DP  RH WIND       PRES   REMARKS
CHARLESTON     HAIL      36  35  96 NW13G23   29.88R FOG
$$

WVZ031-151500-
North Central West Virginia

CITY           SKY/WX    TMP DP  RH WIND       PRES   REMARKS
CLARKSBURG     LGT RAIN  42  38  85 W10       29.78R
MORGANTOWN     LGT RAIN  42  37  82 NW10      29.78R
$$

WVZ035-042-045-151500-
South Central West Virginia

CITY           SKY/WX    TMP DP  RH WIND       PRES   REMARKS
BECKLEY        CLOUDY    39  36  89 N14       29.78R
BLUEFIELD      CLOUDY    43  38  82 NW14G22   29.76R
LEWISBURG      CLOUDY    44  39  83 NW6       29.72R
$$

WVZ047-151500-
Northern Mountains of West Virginia

CITY           SKY/WX    TMP DP  RH WIND       PRES   REMARKS
ELKINS         RAIN      44  40  85 W9        29.75R
$$

WVZ052-151500-
Eastern Panhandle of West Virginia

CITY           SKY/WX    TMP DP  RH WIND       PRES   REMARKS
MARTINSBURG    LGT RAIN  63  59  87 CALM      29.56F
PETERSBURG     LGT RAIN  60  52  75 W18G28    29.61R
$$



USA.gov is the U.S. government's official web portal to all federal, state and local government web resources and services.